When you browse on this site, cookies collect data to enhance your experience and personalize the content and advertising you see.
Visit our Privacy Policy to learn more. By continuing to use the site, you agree to this use of cookies and data.
  • In Hungary
  • List of Countries
  • For 7 days
  • Water Temperature
  • Weather Map
  • News
  • Weather Widgets
  • user-avatar
    Login

    Hourly Weather Konstantinovka

    Today, 18 November, Monday

    Time Temperature Precipitation Wind Pressure Humidity
    00:00 +4°C° 0 mm 3 mps 762 mmHg 85%
    01:00 +3°C° 0 mm 3 mps 762 mmHg 86%
    02:00 +3°C° 0 mm 3 mps 761 mmHg 87%
    03:00 +3°C° 0 mm 3 mps 761 mmHg 88%
    04:00 +2°C° 0 mm 3 mps 761 mmHg 89%
    05:00 +2°C° 0 mm 3 mps 761 mmHg 90%
    06:00 +2°C° 0 mm 3 mps 761 mmHg 91%
    07:00 +2°C° 0 mm 3 mps 761 mmHg 90%
    08:00 +2°C° 0 mm 3 mps 761 mmHg 89%
    09:00 +3°C° 0 mm 4 mps 761 mmHg 88%
    10:00 +4°C° 0 mm 4 mps 761 mmHg 81%
    11:00 +6°C° 0 mm 4 mps 761 mmHg 74%
    12:00 +7°C° 0 mm 4 mps 760 mmHg 66%
    13:00 +8°C° 0 mm 4 mps 760 mmHg 63%
    14:00 +9°C° 0 mm 3 mps 760 mmHg 60%
    15:00 +10°C° 0 mm 3 mps 760 mmHg 57%
    16:00 +9°C° 0 mm 3 mps 760 mmHg 62%
    17:00 +7°C° 0 mm 2 mps 760 mmHg 67%
    18:00 +6°C° 0 mm 2 mps 760 mmHg 73%
    19:00 +6°C° 0 mm 2 mps 760 mmHg 76%
    20:00 +5°C° 0 mm 2 mps 760 mmHg 79%
    21:00 +5°C° 0 mm 2 mps 760 mmHg 82%
    22:00 +5°C° 0 mm 2 mps 760 mmHg 84%
    23:00 +4°C° 0 mm 2 mps 760 mmHg 85%

    Tomorrow, 19 November, Tuesday

    Time Temperature Precipitation Wind Pressure Humidity
    00:00 +4°C° 0 mm 2 mps 760 mmHg 87%
    01:00 +4°C° 0 mm 2 mps 760 mmHg 88%
    02:00 +4°C° 0 mm 2 mps 760 mmHg 88%
    03:00 +5°C° 0 mm 1 mps 761 mmHg 88%
    04:00 +4°C° 0 mm 1 mps 760 mmHg 88%
    05:00 +4°C° 0 mm 1 mps 760 mmHg 89%
    06:00 +4°C° 0 mm 1 mps 760 mmHg 89%
    07:00 +4°C° 0 mm 1 mps 760 mmHg 88%
    08:00 +4°C° 0 mm 2 mps 761 mmHg 87%
    09:00 +4°C° 0 mm 2 mps 761 mmHg 86%
    10:00 +5°C° 0 mm 2 mps 761 mmHg 79%
    11:00 +7°C° 0 mm 2 mps 761 mmHg 71%
    12:00 +9°C° 0 mm 2 mps 761 mmHg 63%
    13:00 +10°C° 0 mm 2 mps 760 mmHg 60%
    14:00 +10°C° 0 mm 2 mps 760 mmHg 57%
    15:00 +12°C° 0 mm 2 mps 760 mmHg 54%
    16:00 +9°C° 0 mm 2 mps 760 mmHg 60%
    17:00 +8°C° 0 mm 2 mps 760 mmHg 66%
    18:00 +7°C° 0 mm 2 mps 760 mmHg 71%
    19:00 +6°C° 0 mm 2 mps 760 mmHg 74%
    20:00 +5°C° 0 mm 2 mps 760 mmHg 77%
    21:00 +5°C° 0 mm 2 mps 761 mmHg 80%
    22:00 +5°C° 0 mm 2 mps 760 mmHg 82%
    23:00 +4°C° 0 mm 2 mps 760 mmHg 84%

    Day after tomorrow, 20 November, Wednesday

    Time Temperature Precipitation Wind Pressure Humidity
    00:00 +4°C° 0 mm 2 mps 760 mmHg 86%
    01:00 +3°C° 0 mm 2 mps 760 mmHg 86%
    02:00 +3°C° 0 mm 2 mps 761 mmHg 87%
    03:00 +3°C° 0 mm 2 mps 761 mmHg 87%
    04:00 +2°C° 0 mm 2 mps 761 mmHg 88%
    05:00 +1°C° 0 mm 3 mps 761 mmHg 88%
    06:00 +1°C° 0 mm 3 mps 761 mmHg 88%
    07:00 +1°C° 0 mm 3 mps 761 mmHg 84%
    08:00 0°C° 0 mm 4 mps 761 mmHg 80%
    09:00 0°C° 0 mm 4 mps 761 mmHg 76%
    10:00 +1°C° 0 mm 4 mps 761 mmHg 66%
    11:00 +3°C° 0 mm 5 mps 761 mmHg 56%
    12:00 +5°C° 0 mm 5 mps 761 mmHg 46%
    13:00 +5°C° 0 mm 5 mps 761 mmHg 47%
    14:00 +5°C° 0 mm 6 mps 761 mmHg 48%
    15:00 +5°C° 0 mm 6 mps 761 mmHg 48%
    16:00 +4°C° 0 mm 6 mps 762 mmHg 57%
    17:00 +3°C° 0 mm 6 mps 762 mmHg 66%
    18:00 +3°C° 0 mm 6 mps 762 mmHg 75%
    19:00 +3°C° 0 mm 6 mps 763 mmHg 77%
    20:00 +2°C° 0 mm 7 mps 763 mmHg 78%
    21:00 +1°C° 0 mm 8 mps 764 mmHg 79%
    22:00 +1°C° 0 mm 8 mps 764 mmHg 76%
    23:00 0°C° 0 mm 8 mps 764 mmHg 73%

    21 November, Thursday

    Time Temperature Precipitation Wind Pressure Humidity
    00:00 -1°C° 0 mm 8 mps 764 mmHg 71%
    01:00 -2°C° 0 mm 7 mps 765 mmHg 68%
    02:00 -3°C° 0 mm 7 mps 765 mmHg 65%
    03:00 -4°C° 0 mm 7 mps 765 mmHg 62%
    04:00 -6°C° 0 mm 7 mps 766 mmHg 61%
    05:00 -7°C° 0 mm 7 mps 766 mmHg 60%
    06:00 -8°C° 0 mm 7 mps 766 mmHg 58%
    07:00 -9°C° 0 mm 7 mps 766 mmHg 57%
    08:00 -10°C° 0 mm 8 mps 767 mmHg 56%
    09:00 -11°C° 0 mm 8 mps 767 mmHg 55%
    10:00 -10°C° 0 mm 8 mps 767 mmHg 50%
    11:00 -8°C° 0 mm 8 mps 767 mmHg 46%
    12:00 -7°C° 0 mm 8 mps 767 mmHg 41%
    13:00 -7°C° 0 mm 8 mps 767 mmHg 41%
    14:00 -6°C° 0 mm 8 mps 767 mmHg 40%
    15:00 -6°C° 0 mm 8 mps 767 mmHg 39%
    16:00 -7°C° 0 mm 8 mps 767 mmHg 40%
    17:00 -8°C° 0 mm 8 mps 767 mmHg 41%
    18:00 -8°C° 0 mm 8 mps 767 mmHg 42%
    19:00 -10°C° 0 mm 8 mps 767 mmHg 42%
    20:00 -10°C° 0 mm 8 mps 767 mmHg 41%
    21:00 -11°C° 0 mm 8 mps 768 mmHg 40%
    22:00 -11°C° 0 mm 7 mps 768 mmHg 41%
    23:00 -11°C° 0 mm 7 mps 768 mmHg 41%

    22 November, Friday

    Time Temperature Precipitation Wind Pressure Humidity
    00:00 -11°C° 0 mm 7 mps 768 mmHg 42%
    01:00 -12°C° 0 mm 7 mps 768 mmHg 42%
    02:00 -12°C° 0 mm 7 mps 768 mmHg 42%
    03:00 -12°C° 0 mm 7 mps 767 mmHg 42%
    04:00 -12°C° 0 mm 7 mps 767 mmHg 43%
    05:00 -12°C° 0 mm 7 mps 767 mmHg 44%
    06:00 -12°C° 0 mm 7 mps 767 mmHg 45%
    07:00 -12°C° 0 mm 8 mps 767 mmHg 45%
    08:00 -12°C° 0 mm 8 mps 767 mmHg 45%
    09:00 -11°C° 0 mm 9 mps 767 mmHg 45%
    10:00 -10°C° 0 mm 9 mps 767 mmHg 41%
    11:00 -8°C° 0 mm 9 mps 767 mmHg 37%
    12:00 -6°C° 0 mm 9 mps 767 mmHg 33%
    13:00 -5°C° 0 mm 9 mps 766 mmHg 31%
    14:00 -5°C° 0 mm 9 mps 766 mmHg 29%
    15:00 -4°C° 0 mm 9 mps 766 mmHg 27%
    16:00 -5°C° 0 mm 8 mps 766 mmHg 30%
    17:00 -6°C° 0 mm 7 mps 766 mmHg 32%
    18:00 -7°C° 0 mm 7 mps 766 mmHg 34%
    19:00 -7°C° 0 mm 7 mps 766 mmHg 36%
    20:00 -7°C° 0 mm 7 mps 766 mmHg 37%
    21:00 -8°C° 0 mm 7 mps 766 mmHg 38%
    22:00 -8°C° 0 mm 7 mps 766 mmHg 40%
    23:00 -8°C° 0 mm 7 mps 766 mmHg 42%

    23 November, Saturday

    Time Temperature Precipitation Wind Pressure Humidity
    00:00 -8°C° 0 mm 7 mps 766 mmHg 44%
    01:00 -8°C° 0 mm 7 mps 766 mmHg 46%
    02:00 -9°C° 0 mm 7 mps 765 mmHg 47%
    03:00 -9°C° 0 mm 7 mps 765 mmHg 49%
    04:00 -9°C° 0 mm 7 mps 765 mmHg 50%
    05:00 -9°C° 0 mm 7 mps 765 mmHg 51%
    06:00 -9°C° 0 mm 7 mps 765 mmHg 53%
    07:00 -9°C° 0 mm 7 mps 765 mmHg 54%
    08:00 -8°C° 0 mm 7 mps 765 mmHg 55%
    09:00 -8°C° 0 mm 7 mps 765 mmHg 57%
    10:00 -7°C° 0 mm 8 mps 764 mmHg 56%
    11:00 -6°C° 0 mm 8 mps 764 mmHg 54%
    12:00 -4°C° 0 mm 8 mps 764 mmHg 53%
    13:00 -4°C° 0 mm 8 mps 764 mmHg 53%
    14:00 -3°C° 0 mm 7 mps 764 mmHg 53%
    15:00 -2°C° 0 mm 7 mps 763 mmHg 53%
    16:00 -3°C° 0 mm 7 mps 763 mmHg 55%
    17:00 -4°C° 0 mm 6 mps 763 mmHg 57%
    18:00 -5°C° 0 mm 6 mps 763 mmHg 60%
    19:00 -5°C° 0 mm 6 mps 763 mmHg 60%
    20:00 -6°C° 0 mm 6 mps 763 mmHg 61%
    21:00 -6°C° 0 mm 6 mps 763 mmHg 62%
    22:00 -6°C° 0 mm 6 mps 763 mmHg 63%
    23:00 -6°C° 0 mm 6 mps 763 mmHg 64%
    Show more